PST,Max TemperatureF,Mean TemperatureF,Min TemperatureF,Max Dew PointF,MeanDew PointF,Min DewpointF,Max Humidity, Mean Humidity, Min Humidity, Max Sea Level PressureIn, Mean Sea Level PressureIn, Min Sea Level PressureIn, Max VisibilityMiles, Mean VisibilityMiles, Min VisibilityMiles, Max Wind SpeedMPH, Mean Wind SpeedMPH, Max Gust SpeedMPH,PrecipitationIn, CloudCover, Events, WindDirDegrees
2012-1-1,81,58,34,41,34,28,82,51,19,30.25,30.18,30.10,10,4,0,7,1,24,0.00,1,,151
2012-1-2,79,60,35,37,33,27,62,42,21,30.30,30.24,30.19,10,10,6,22,2,,0.00,0,,286
2012-1-3,84,59,34,39,35,27,82,49,16,30.35,30.28,30.21,10,10,6,25,4,61,0.00,0,,81
2012-1-4,93,66,37,42,36,28,71,42,13,30.36,30.29,30.21,10,8,3,14,3,28,0.00,0,,107
2012-1-5,74,53,32,38,34,30,89,55,20,30.31,30.21,30.12,10,9,5,12,2,14,0.00,0,,63
2012-1-6,62,47,32,43,35,29,100,73,46,30.17,30.13,30.06,10,5,0,14,4,17,0.00,4,Fog,9
2012-1-7,66,47,27,39,29,26,96,63,29,30.18,30.13,30.05,10,6,0,15,4,,0.00,1,Fog,43
2012-1-8,68,48,27,30,27,23,85,52,19,30.26,30.20,30.15,10,10,10,10,3,,0.00,0,,77
2012-1-9,70,48,26,28,24,20,81,49,16,30.27,30.21,30.15,10,10,10,7,1,,0.00,0,,144
2012-1-10,69,48,26,28,24,17,75,45,14,30.19,30.14,30.07,10,10,10,15,3,28,0.00,0,,163
2012-1-11,59,43,27,34,29,23,100,68,36,30.16,30.10,30.03,10,6,0,7,1,,0.00,3,Fog,118
2012-1-12,71,48,25,33,28,23,92,56,19,30.14,30.09,30.00,10,6,2,14,3,18,0.00,0,,114
2012-1-13,76,50,24,32,26,18,85,49,13,30.25,30.18,30.11,10,7,3,13,3,21,0.00,0,,108
2012-1-14,64,45,25,27,24,19,81,50,18,30.24,30.16,30.09,10,8,5,8,1,,0.00,0,,125
2012-1-15,65,45,25,38,27,17,76,46,16,30.13,30.09,30.02,10,10,10,17,5,22,0.00,1,,253
2012-1-16,53,38,23,32,21,11,85,53,21,30.32,30.23,30.13,10,10,9,13,3,16,0.00,1,,354
2012-1-17,56,37,17,20,11,6,74,44,14,30.42,30.36,30.30,10,10,10,13,3,,0.00,0,,83
2012-1-18,62,40,18,18,13,2,67,38,8,30.41,30.34,30.27,10,10,10,10,2,26,0.00,0,,34
2012-1-19,56,38,19,35,21,12,71,47,22,30.27,30.18,30.11,10,10,10,13,2,20,0.00,1,Rain,314
2012-1-20,61,51,41,54,46,32,86,67,48,30.14,30.04,29.91,10,9,3,15,5,37,0.07,8,Rain,168
2012-1-21,57,47,36,54,45,33,93,72,51,30.17,29.98,29.83,10,8,2,25,11,26,0.64,5,Rain,264
2012-1-22,57,47,36,41,37,33,92,68,43,30.21,30.13,30.01,10,10,10,14,4,,T,5,Rain,178
2012-1-23,59,50,41,52,47,39,93,78,62,30.14,29.92,29.84,10,7,2,25,11,31,0.78,6,Rain,241
2012-1-24,60,50,40,46,42,38,100,83,66,30.40,30.28,30.16,10,8,0,14,5,,0.00,5,Fog,77
2012-1-25,65,51,37,50,43,36,100,78,56,30.41,30.35,30.28,10,9,5,16,6,21,0.00,0,,88
2012-1-26,67,54,41,53,46,39,96,80,63,30.34,30.27,30.19,10,6,0,9,2,35,0.00,4,Fog,47
2012-1-27,66,53,39,50,45,35,100,70,39,30.27,30.20,30.14,10,4,0,16,4,,0.00,2,Fog,43
2012-1-28,66,50,34,45,38,31,92,66,40,30.33,30.27,30.22,10,9,4,16,5,21,0.00,0,,81
2012-1-29,72,52,32,42,35,27,92,56,19,30.29,30.20,30.11,10,8,3,7,1,,0.00,0,,121
2012-1-30,63,48,32,46,38,30,96,69,42,30.13,30.05,29.98,10,10,7,12,3,30,0.00,2,,345
2012-1-31,64,55,45,47,45,43,100,76,52,30.18,30.09,30.03,10,5,0,15,8,31,0.00,4,Fog,346